"Sample Date","Sample Time","Sensor Name","Sample Value","Units","Flow Rate","Sample Interval","Sample Volume","Laser Status","Number Channels","Micron Size 0","Counts/Channel 0","Micron Size 1","Counts/Channel 1","Micron Size 2","Counts/Channel 2","Micron Size 3","Counts/Channel 3","Micron Size 4","Counts/Channel 4","Micron Size 5","Counts/Channel 5","Micron Size 6","Counts/Channel 6","Micron Size 7","Counts/Channel 7","Micron Size 8","Counts/Channel 8","Micron Size 9","Counts/Channel 9","Micron Size 10","Counts/Channel 10","Micron Size 11","Counts/Channel 11","Micron Size 12","Counts/Channel 12","Micron Size 13","Counts/Channel 13","Micron Size 14","Counts/Channel 14","Micron Size 15","Counts/Channel 15","Micron Size 16","Counts/Channel 16","Micron Size 17","Counts/Channel 17","Micron Size 18","Counts/Channel 18","Micron Size 19","Counts/Channel 19","Micron Size 20","Counts/Channel 20","Micron Size 21","Counts/Channel 21","Micron Size 22","Counts/Channel 22","Micron Size 23","Counts/Channel 23","Micron Size 24","Counts/Channel 24","Micron Size 25","Counts/Channel 25","Micron Size 26","Counts/Channel 26","Micron Size 27","Counts/Channel 27","Micron Size 28","Counts/Channel 28","Micron Size 29","Counts/Channel 29","Micron Size 30","Counts/Channel 30","Micron Size 31","Counts/Channel 31"
"07/03/06","19:00:02","AMMA06",73209.000,"cc",28314.873,6.00,2831.488,1,6,0.100,38245.000,0.200,25956.000,0.300,5519.000,0.500,2175.000,1.000,1309.000,5.000,5.000
"07/03/06","19:00:08","AMMA06",73562.000,"cc",28296.133,6.00,2829.614,1,6,0.100,38146.000,0.200,26501.000,0.300,5482.000,0.500,2106.000,1.000,1327.000,5.000,0
"07/03/06","19:00:14","AMMA06",73449.000,"cc",28279.518,6.00,2827.952,1,6,0.100,38386.000,0.200,26158.000,0.300,5442.000,0.500,2080.000,1.000,1378.000,5.000,5.000
"07/03/06","19:00:20","AMMA06",73321.000,"cc",28350.955,6.00,2835.096,1,6,0.100,38171.000,0.200,26175.000,0.300,5630.000,0.500,2027.000,1.000,1318.000,5.000,0
"07/03/06","19:00:26","AMMA06",72953.000,"cc",28323.178,6.00,2832.318,1,6,0.100,38106.000,0.200,25920.000,0.300,5487.000,0.500,2081.000,1.000,1358.000,5.000,1.000
"07/03/06","19:00:32","AMMA06",72737.000,"cc",28298.795,6.00,2829.880,1,6,0.100,37955.000,0.200,25824.000,0.300,5536.000,0.500,2084.000,1.000,1337.000,5.000,1.000
"07/03/06","19:00:38","AMMA06",73386.000,"cc",28347.107,6.00,2834.711,1,6,0.100,38338.000,0.200,26222.000,0.300,5415.000,0.500,2084.000,1.000,1324.000,5.000,3.000
"07/03/06","19:00:44","AMMA06",72949.000,"cc",28264.971,6.00,2826.497,1,6,0.100,38117.000,0.200,26051.000,0.300,5457.000,0.500,2058.000,1.000,1265.000,5.000,1.000
"07/03/06","19:00:50","AMMA06",73224.000,"cc",28338.803,6.00,2833.880,1,6,0.100,38323.000,0.200,26190.000,0.300,5427.000,0.500,2043.000,1.000,1239.000,5.000,2.000
"07/03/06","19:00:56","AMMA06",73282.000,"cc",28346.002,6.00,2834.600,1,6,0.100,38500.000,0.200,25907.000,0.300,5416.000,0.500,2106.000,1.000,1353.000,5.000,0
"07/03/06","19:01:02","AMMA06",73459.000,"cc",28310.389,6.00,2831.039,1,6,0.100,38238.000,0.200,26283.000,0.300,5606.000,0.500,2006.000,1.000,1324.000,5.000,2.000
"07/03/06","19:01:08","AMMA06",73142.000,"cc",28330.971,6.00,2833.097,1,6,0.100,38373.000,0.200,25924.000,0.300,5361.000,0.500,2176.000,1.000,1306.000,5.000,2.000
"07/03/06","19:01:14","AMMA06",72640.000,"cc",28278.188,6.00,2827.819,1,6,0.100,37668.000,0.200,26200.000,0.300,5379.000,0.500,2080.000,1.000,1311.000,5.000,2.000
"07/03/06","19:01:20","AMMA06",72915.000,"cc",28346.758,6.00,2834.676,1,6,0.100,37986.000,0.200,25917.000,0.300,5554.000,0.500,2118.000,1.000,1338.000,5.000,2.000
"07/03/06","19:01:26","AMMA06",72759.000,"cc",28319.213,6.00,2831.921,1,6,0.100,38016.000,0.200,26016.000,0.300,5268.000,0.500,2141.000,1.000,1318.000,5.000,0
"07/03/06","19:01:32","AMMA06",72765.000,"cc",28326.938,6.00,2832.694,1,6,0.100,37804.000,0.200,26149.000,0.300,5390.000,0.500,2094.000,1.000,1325.000,5.000,3.000
"07/03/06","19:01:38","AMMA06",72658.000,"cc",28287.518,6.00,2828.752,1,6,0.100,37766.000,0.200,26021.000,0.300,5347.000,0.500,2199.000,1.000,1324.000,5.000,1.000
"07/03/06","19:01:44","AMMA06",72677.000,"cc",28373.094,6.00,2837.310,1,6,0.100,37811.000,0.200,26118.000,0.300,5355.000,0.500,2072.000,1.000,1321.000,5.000,0
"07/03/06","19:01:50","AMMA06",72646.000,"cc",28275.250,6.00,2827.525,1,6,0.100,37844.000,0.200,25848.000,0.300,5576.000,0.500,2081.000,1.000,1297.000,5.000,0
"07/03/06","19:01:56","AMMA06",72278.000,"cc",28313.102,6.00,2831.310,1,6,0.100,37765.000,0.200,25751.000,0.300,5386.000,0.500,2100.000,1.000,1274.000,5.000,2.000
"07/03/06","19:02:02","AMMA06",72303.000,"cc",28347.410,6.00,2834.741,1,6,0.100,37700.000,0.200,25936.000,0.300,5256.000,0.500,2056.000,1.000,1355.000,5.000,0
"07/03/06","19:02:08","AMMA06",72432.000,"cc",28288.637,6.00,2828.864,1,6,0.100,37920.000,0.200,25810.000,0.300,5350.000,0.500,2043.000,1.000,1308.000,5.000,1.000
"07/03/06","19:02:14","AMMA06",72469.000,"cc",28296.826,6.00,2829.683,1,6,0.100,37727.000,0.200,25846.000,0.300,5408.000,0.500,2152.000,1.000,1335.000,5.000,1.000
"07/03/06","19:02:20","AMMA06",72646.000,"cc",28292.967,6.00,2829.297,1,6,0.100,38096.000,0.200,25848.000,0.300,5333.000,0.500,2028.000,1.000,1340.000,5.000,1.000
"07/03/06","19:02:26","AMMA06",72468.000,"cc",28299.193,6.00,2829.919,1,6,0.100,37749.000,0.200,26057.000,0.300,5239.000,0.500,2123.000,1.000,1299.000,5.000,1.000
"07/03/06","19:02:32","AMMA06",72920.000,"cc",28329.707,6.00,2832.971,1,6,0.100,38109.000,0.200,26004.000,0.300,5340.000,0.500,2194.000,1.000,1271.000,5.000,2.000
"07/03/06","19:02:38","AMMA06",72859.000,"cc",28344.648,6.00,2834.465,1,6,0.100,38265.000,0.200,25843.000,0.300,5305.000,0.500,2109.000,1.000,1336.000,5.000,1.000
"07/03/06","19:02:44","AMMA06",72561.000,"cc",28343.734,6.00,2834.374,1,6,0.100,38009.000,0.200,25855.000,0.300,5294.000,0.500,2135.000,1.000,1266.000,5.000,2.000
"07/03/06","19:02:50","AMMA06",72451.000,"cc",28281.449,6.00,2828.145,1,6,0.100,37720.000,0.200,25955.000,0.300,5300.000,0.500,2190.000,1.000,1286.000,5.000,0
"07/03/06","19:02:56","AMMA06",72451.000,"cc",28306.402,6.00,2830.640,1,6,0.100,37822.000,0.200,25884.000,0.300,5395.000,0.500,2122.000,1.000,1228.000,5.000,0
"07/03/06","19:03:02","AMMA06",72846.000,"cc",28383.334,6.00,2838.334,1,6,0.100,38076.000,0.200,26003.000,0.300,5365.000,0.500,2125.000,1.000,1277.000,5.000,0
"07/03/06","19:03:08","AMMA06",72553.000,"cc",28304.352,6.00,2830.435,1,6,0.100,37722.000,0.200,26065.000,0.300,5461.000,0.500,2052.000,1.000,1252.000,5.000,1.000
"07/03/06","19:03:14","AMMA06",72418.000,"cc",28309.137,6.00,2830.914,1,6,0.100,37821.000,0.200,25806.000,0.300,5325.000,0.500,2147.000,1.000,1318.000,5.000,1.000
"07/03/06","19:03:20","AMMA06",72276.000,"cc",28325.004,6.00,2832.501,1,6,0.100,37583.000,0.200,26014.000,0.300,5349.000,0.500,2054.000,1.000,1276.000,5.000,0
"07/03/06","19:03:26","AMMA06",72634.000,"cc",28335.047,6.00,2833.505,1,6,0.100,37950.000,0.200,25953.000,0.300,5318.000,0.500,2137.000,1.000,1276.000,5.000,0
"07/03/06","19:03:32","AMMA06",72952.000,"cc",28305.633,6.00,2830.564,1,6,0.100,38066.000,0.200,26206.000,0.300,5373.000,0.500,1987.000,1.000,1319.000,5.000,1.000
"07/03/06","19:03:38","AMMA06",72940.000,"cc",28295.488,6.00,2829.549,1,6,0.100,38162.000,0.200,26186.000,0.300,5309.000,0.500,1983.000,1.000,1299.000,5.000,1.000
"07/03/06","19:03:44","AMMA06",72758.000,"cc",28320.566,6.00,2832.057,1,6,0.100,37808.000,0.200,26029.000,0.300,5537.000,0.500,2095.000,1.000,1288.000,5.000,1.000
"07/03/06","19:03:50","AMMA06",72396.000,"cc",28347.604,6.00,2834.761,1,6,0.100,37383.000,0.200,26072.000,0.300,5463.000,0.500,2198.000,1.000,1279.000,5.000,1.000
"07/03/06","19:03:56","AMMA06",72787.000,"cc",28344.195,6.00,2834.420,1,6,0.100,37713.000,0.200,26204.000,0.300,5484.000,0.500,2050.000,1.000,1335.000,5.000,1.000
"07/03/06","19:04:02","AMMA06",72948.000,"cc",28290.318,6.00,2829.032,1,6,0.100,38031.000,0.200,26164.000,0.300,5361.000,0.500,2061.000,1.000,1326.000,5.000,5.000
"07/03/06","19:04:08","AMMA06",73300.000,"cc",28318.164,6.00,2831.817,1,6,0.100,38065.000,0.200,26335.000,0.300,5420.000,0.500,2121.000,1.000,1359.000,5.000,0
"07/03/06","19:04:14","AMMA06",72827.000,"cc",28349.398,6.00,2834.940,1,6,0.100,37955.000,0.200,25840.000,0.300,5568.000,0.500,2087.000,1.000,1374.000,5.000,3.000
"07/03/06","19:04:20","AMMA06",73093.000,"cc",28287.637,6.00,2828.764,1,6,0.100,38084.000,0.200,26079.000,0.300,5508.000,0.500,2072.000,1.000,1349.000,5.000,1.000
"07/03/06","19:04:26","AMMA06",73135.000,"cc",28266.039,6.00,2826.604,1,6,0.100,38064.000,0.200,26306.000,0.300,5338.000,0.500,2076.000,1.000,1349.000,5.000,2.000
"07/03/06","19:04:32","AMMA06",72588.000,"cc",28380.678,6.00,2838.068,1,6,0.100,37632.000,0.200,26122.000,0.300,5464.000,0.500,2060.000,1.000,1307.000,5.000,3.000
"07/03/06","19:04:38","AMMA06",73044.000,"cc",28326.315,6.00,2832.632,1,6,0.100,37911.000,0.200,26259.000,0.300,5524.000,0.500,2047.000,1.000,1301.000,5.000,2.000
"07/03/06","19:04:44","AMMA06",73199.000,"cc",28289.361,6.00,2828.936,1,6,0.100,38057.000,0.200,26284.000,0.300,5463.000,0.500,2055.000,1.000,1339.000,5.000,1.000
"07/03/06","19:04:50","AMMA06",72759.000,"cc",28305.469,6.00,2830.547,1,6,0.100,37765.000,0.200,26199.000,0.300,5429.000,0.500,2087.000,1.000,1279.000,5.000,0
"07/03/06","19:04:56","AMMA06",73202.000,"cc",28346.676,6.00,2834.668,1,6,0.100,37960.000,0.200,26328.000,0.300,5480.000,0.500,2083.000,1.000,1350.000,5.000,1.000
"07/03/06","19:05:02","AMMA06",72998.000,"cc",28353.992,6.00,2835.399,1,6,0.100,37956.000,0.200,26156.000,0.300,5431.000,0.500,2091.000,1.000,1362.000,5.000,2.000
"07/03/06","19:05:08","AMMA06",73026.000,"cc",28315.332,6.00,2831.533,1,6,0.100,38110.000,0.200,26156.000,0.300,5370.000,0.500,2105.000,1.000,1285.000,5.000,0
"07/03/06","19:05:14","AMMA06",72657.000,"cc",28288.395,6.00,2828.840,1,6,0.100,37744.000,0.200,25950.000,0.300,5496.000,0.500,2151.000,1.000,1315.000,5.000,1.000
"07/03/06","19:05:20","AMMA06",72635.000,"cc",28281.445,6.00,2828.145,1,6,0.100,37833.000,0.200,25912.000,0.300,5431.000,0.500,2080.000,1.000,1378.000,5.000,1.000
"07/03/06","19:05:26","AMMA06",73121.000,"cc",28294.736,6.00,2829.474,1,6,0.100,38288.000,0.200,25969.000,0.300,5446.000,0.500,2073.000,1.000,1343.000,5.000,2.000
"07/03/06","19:05:32","AMMA06",72935.000,"cc",28313.807,6.00,2831.381,1,6,0.100,37914.000,0.200,26070.000,0.300,5441.000,0.500,2175.000,1.000,1334.000,5.000,1.000
"07/03/06","19:05:38","AMMA06",73473.000,"cc",28367.879,6.00,2836.788,1,6,0.100,38159.000,0.200,26356.000,0.300,5434.000,0.500,2199.000,1.000,1324.000,5.000,1.000
"07/03/06","19:05:44","AMMA06",72469.000,"cc",28301.637,6.00,2830.164,1,6,0.100,37732.000,0.200,25918.000,0.300,5384.000,0.500,2116.000,1.000,1318.000,5.000,1.000
"07/03/06","19:05:50","AMMA06",72194.000,"cc",28282.066,6.00,2828.207,1,6,0.100,37424.000,0.200,25982.000,0.300,5381.000,0.500,2058.000,1.000,1348.000,5.000,1.000
"07/03/06","19:05:56","AMMA06",72761.000,"cc",28344.332,6.00,2834.433,1,6,0.100,37773.000,0.200,26237.000,0.300,5433.000,0.500,2029.000,1.000,1286.000,5.000,3.000
"07/03/06","19:06:02","AMMA06",72311.000,"cc",28323.109,6.00,2832.311,1,6,0.100,37581.000,0.200,25979.000,0.300,5412.000,0.500,2053.000,1.000,1285.000,5.000,1.000
"07/03/06","19:06:08","AMMA06",72973.000,"cc",28313.902,6.00,2831.390,1,6,0.100,37776.000,0.200,26282.000,0.300,5510.000,0.500,2108.000,1.000,1296.000,5.000,1.000
"07/03/06","19:06:14","AMMA06",73016.000,"cc",28304.570,6.00,2830.457,1,6,0.100,37928.000,0.200,26160.000,0.300,5434.000,0.500,2174.000,1.000,1316.000,5.000,4.000
"07/03/06","19:06:20","AMMA06",72801.000,"cc",28298.484,6.00,2829.849,1,6,0.100,37747.000,0.200,26171.000,0.300,5457.000,0.500,2087.000,1.000,1339.000,5.000,0
"07/03/06","19:06:26","AMMA06",72670.000,"cc",28332.652,6.00,2833.265,1,6,0.100,37819.000,0.200,25921.000,0.300,5516.000,0.500,2062.000,1.000,1349.000,5.000,3.000
"07/03/06","19:06:32","AMMA06",72939.000,"cc",28305.565,6.00,2830.557,1,6,0.100,37905.000,0.200,25935.000,0.300,5605.000,0.500,2158.000,1.000,1335.000,5.000,1.000
"07/03/06","19:06:38","AMMA06",72736.000,"cc",28318.309,6.00,2831.831,1,6,0.100,37458.000,0.200,26448.000,0.300,5530.000,0.500,2011.000,1.000,1289.000,5.000,0
"07/03/06","19:06:44","AMMA06",72650.000,"cc",28317.164,6.00,2831.717,1,6,0.100,37655.000,0.200,26218.000,0.300,5377.000,0.500,2076.000,1.000,1323.000,5.000,1.000
"07/03/06","19:06:50","AMMA06",72765.000,"cc",28321.611,6.00,2832.161,1,6,0.100,37771.000,0.200,26083.000,0.300,5488.000,0.500,2084.000,1.000,1337.000,5.000,2.000
"07/03/06","19:06:56","AMMA06",72986.000,"cc",28321.318,6.00,2832.132,1,6,0.100,38258.000,0.200,26027.000,0.300,5335.000,0.500,2032.000,1.000,1332.000,5.000,2.000
"07/03/06","19:07:02","AMMA06",72758.000,"cc",28288.924,6.00,2828.893,1,6,0.100,37786.000,0.200,26062.000,0.300,5518.000,0.500,2091.000,1.000,1299.000,5.000,2.000
"07/03/06","19:07:08","AMMA06",72432.000,"cc",28341.815,6.00,2834.182,1,6,0.100,37595.000,0.200,26065.000,0.300,5447.000,0.500,2058.000,1.000,1267.000,5.000,0
"07/03/06","19:07:14","AMMA06",72971.000,"cc",28325.463,6.00,2832.546,1,6,0.100,37680.000,0.200,26274.000,0.300,5611.000,0.500,2091.000,1.000,1314.000,5.000,1.000
"07/03/06","19:07:20","AMMA06",73057.000,"cc",28331.510,6.00,2833.151,1,6,0.100,37907.000,0.200,26029.000,0.300,5643.000,0.500,2103.000,1.000,1375.000,5.000,0
"07/03/06","19:07:26","AMMA06",73167.000,"cc",28322.875,6.00,2832.288,1,6,0.100,38083.000,0.200,26252.000,0.300,5375.000,0.500,2121.000,1.000,1335.000,5.000,1.000
"07/03/06","19:07:32","AMMA06",73425.000,"cc",28302.582,6.00,2830.258,1,6,0.100,38235.000,0.200,26106.000,0.300,5552.000,0.500,2187.000,1.000,1344.000,5.000,1.000
"07/03/06","19:07:38","AMMA06",73264.000,"cc",28310.371,6.00,2831.037,1,6,0.100,38040.000,0.200,26322.000,0.300,5576.000,0.500,2098.000,1.000,1228.000,5.000,0
"07/03/06","19:07:44","AMMA06",73724.000,"cc",28321.441,6.00,2832.144,1,6,0.100,38154.000,0.200,26295.000,0.300,5802.000,0.500,2124.000,1.000,1349.000,5.000,0
"07/03/06","19:07:50","AMMA06",73302.000,"cc",28300.092,6.00,2830.009,1,6,0.100,37958.000,0.200,26298.000,0.300,5622.000,0.500,2097.000,1.000,1327.000,5.000,0
"07/03/06","19:07:56","AMMA06",73629.000,"cc",28333.461,6.00,2833.346,1,6,0.100,38448.000,0.200,26186.000,0.300,5515.000,0.500,2129.000,1.000,1350.000,5.000,1.000
"07/03/06","19:08:02","AMMA06",73748.000,"cc",28285.131,6.00,2828.513,1,6,0.100,38355.000,0.200,26229.000,0.300,5564.000,0.500,2197.000,1.000,1399.000,5.000,4.000
"07/03/06","19:08:08","AMMA06",73322.000,"cc",28347.272,6.00,2834.727,1,6,0.100,38152.000,0.200,26279.000,0.300,5460.000,0.500,2128.000,1.000,1303.000,5.000,0
"07/03/06","19:08:14","AMMA06",73205.000,"cc",28307.496,6.00,2830.750,1,6,0.100,37961.000,0.200,26178.000,0.300,5579.000,0.500,2195.000,1.000,1292.000,5.000,0
"07/03/06","19:08:20","AMMA06",73210.000,"cc",28319.168,6.00,2831.917,1,6,0.100,38265.000,0.200,26130.000,0.300,5409.000,0.500,2102.000,1.000,1300.000,5.000,4.000
"07/03/06","19:08:26","AMMA06",73203.000,"cc",28266.762,6.00,2826.676,1,6,0.100,38187.000,0.200,26131.000,0.300,5472.000,0.500,2098.000,1.000,1313.000,5.000,2.000
"07/03/06","19:08:32","AMMA06",73532.000,"cc",28304.600,6.00,2830.460,1,6,0.100,38350.000,0.200,26193.000,0.300,5500.000,0.500,2168.000,1.000,1320.000,5.000,1.000
"07/03/06","19:08:38","AMMA06",73146.000,"cc",28348.799,6.00,2834.880,1,6,0.100,38106.000,0.200,26162.000,0.300,5500.000,0.500,2068.000,1.000,1307.000,5.000,3.000
"07/03/06","19:08:44","AMMA06",73292.000,"cc",28297.320,6.00,2829.732,1,6,0.100,38074.000,0.200,26169.000,0.300,5445.000,0.500,2253.000,1.000,1350.000,5.000,1.000
"07/03/06","19:08:50","AMMA06",72952.000,"cc",28299.125,6.00,2829.913,1,6,0.100,38323.000,0.200,25822.000,0.300,5434.000,0.500,2085.000,1.000,1286.000,5.000,2.000
"07/03/06","19:08:56","AMMA06",73518.000,"cc",28276.895,6.00,2827.690,1,6,0.100,38476.000,0.200,26218.000,0.300,5430.000,0.500,2086.000,1.000,1302.000,5.000,6.000
"07/03/06","19:09:02","AMMA06",73152.000,"cc",28319.361,6.00,2831.936,1,6,0.100,38248.000,0.200,25941.000,0.300,5503.000,0.500,2095.000,1.000,1364.000,5.000,1.000
"07/03/06","19:09:08","AMMA06",73577.000,"cc",28335.147,6.00,2833.515,1,6,0.100,38440.000,0.200,26458.000,0.300,5376.000,0.500,2079.000,1.000,1223.000,5.000,1.000
"07/03/06","19:09:14","AMMA06",73334.000,"cc",28359.121,6.00,2835.912,1,6,0.100,38453.000,0.200,26016.000,0.300,5376.000,0.500,2150.000,1.000,1339.000,5.000,0
"07/03/06","19:09:20","AMMA06",72808.000,"cc",28334.463,6.00,2833.447,1,6,0.100,37785.000,0.200,26053.000,0.300,5472.000,0.500,2168.000,1.000,1326.000,5.000,4.000
"07/03/06","19:09:26","AMMA06",72694.000,"cc",28287.633,6.00,2828.763,1,6,0.100,37924.000,0.200,25834.000,0.300,5527.000,0.500,2138.000,1.000,1271.000,5.000,0
"07/03/06","19:09:32","AMMA06",73079.000,"cc",28304.232,6.00,2830.423,1,6,0.100,38293.000,0.200,25863.000,0.300,5532.000,0.500,2073.000,1.000,1317.000,5.000,1.000
"07/03/06","19:09:38","AMMA06",72818.000,"cc",28336.553,6.00,2833.656,1,6,0.100,38128.000,0.200,26006.000,0.300,5370.000,0.500,2033.000,1.000,1280.000,5.000,1.000
"07/03/06","19:09:44","AMMA06",73046.000,"cc",28306.158,6.00,2830.616,1,6,0.100,38473.000,0.200,25772.000,0.300,5358.000,0.500,2077.000,1.000,1364.000,5.000,2.000
"07/03/06","19:09:50","AMMA06",72978.000,"cc",28328.496,6.00,2832.850,1,6,0.100,38335.000,0.200,25799.000,0.300,5446.000,0.500,2135.000,1.000,1262.000,5.000,1.000
"07/03/06","19:09:56","AMMA06",72976.000,"cc",28300.117,6.00,2830.012,1,6,0.100,38605.000,0.200,25699.000,0.300,5347.000,0.500,2076.000,1.000,1247.000,5.000,2.000
"07/03/06","19:10:02","AMMA06",73499.000,"cc",28266.930,6.00,2826.693,1,6,0.100,38696.000,0.200,26087.000,0.300,5280.000,0.500,2099.000,1.000,1336.000,5.000,1.000
"07/03/06","19:10:08","AMMA06",73336.000,"cc",28363.555,6.00,2836.356,1,6,0.100,38397.000,0.200,26299.000,0.300,5240.000,0.500,2060.000,1.000,1340.000,5.000,0
"07/03/06","19:10:14","AMMA06",72369.000,"cc",28340.758,6.00,2834.076,1,6,0.100,38027.000,0.200,25608.000,0.300,5378.000,0.500,2105.000,1.000,1250.000,5.000,1.000
"07/03/06","19:10:20","AMMA06",72137.000,"cc",28259.346,6.00,2825.935,1,6,0.100,37546.000,0.200,25842.000,0.300,5397.000,0.500,2090.000,1.000,1258.000,5.000,4.000
"07/03/06","19:10:26","AMMA06",72895.000,"cc",28308.178,6.00,2830.818,1,6,0.100,38095.000,0.200,26042.000,0.300,5347.000,0.500,2119.000,1.000,1292.000,5.000,0
"07/03/06","19:10:32","AMMA06",72946.000,"cc",28353.455,6.00,2835.346,1,6,0.100,38290.000,0.200,25810.000,0.300,5419.000,0.500,2060.000,1.000,1366.000,5.000,1.000
"07/03/06","19:10:38","AMMA06",72443.000,"cc",28327.397,6.00,2832.740,1,6,0.100,37644.000,0.200,26025.000,0.300,5364.000,0.500,2114.000,1.000,1296.000,5.000,0
"07/03/06","19:10:44","AMMA06",73042.000,"cc",28351.383,6.00,2835.138,1,6,0.100,38209.000,0.200,26038.000,0.300,5405.000,0.500,2038.000,1.000,1351.000,5.000,1.000
"07/03/06","19:10:50","AMMA06",72660.000,"cc",28349.648,6.00,2834.965,1,6,0.100,38085.000,0.200,25671.000,0.300,5487.000,0.500,2156.000,1.000,1260.000,5.000,1.000
"07/03/06","19:10:56","AMMA06",71784.000,"cc",28286.391,6.00,2828.639,1,6,0.100,37608.000,0.200,25553.000,0.300,5247.000,0.500,2035.000,1.000,1340.000,5.000,1.000
"07/03/06","19:11:02","AMMA06",72544.000,"cc",28355.889,6.00,2835.589,1,6,0.100,37756.000,0.200,25972.000,0.300,5358.000,0.500,2134.000,1.000,1321.000,5.000,3.000
"07/03/06","19:11:08","AMMA06",72654.000,"cc",28322.000,6.00,2832.200,1,6,0.100,38061.000,0.200,25652.000,0.300,5466.000,0.500,2171.000,1.000,1303.000,5.000,1.000
"07/03/06","19:11:14","AMMA06",72406.000,"cc",28309.359,6.00,2830.936,1,6,0.100,37769.000,0.200,25814.000,0.300,5398.000,0.500,2085.000,1.000,1340.000,5.000,0
"07/03/06","19:11:20","AMMA06",72510.000,"cc",28282.773,6.00,2828.278,1,6,0.100,38134.000,0.200,25610.000,0.300,5444.000,0.500,2070.000,1.000,1250.000,5.000,2.000
"07/03/06","19:11:26","AMMA06",73073.000,"cc",28282.074,6.00,2828.208,1,6,0.100,37889.000,0.200,26231.000,0.300,5524.000,0.500,2095.000,1.000,1334.000,5.000,0
"07/03/06","19:11:32","AMMA06",72737.000,"cc",28295.395,6.00,2829.540,1,6,0.100,37807.000,0.200,25953.000,0.300,5547.000,0.500,2088.000,1.000,1341.000,5.000,1.000
"07/03/06","19:11:38","AMMA06",73118.000,"cc",28306.850,6.00,2830.685,1,6,0.100,38205.000,0.200,25995.000,0.300,5535.000,0.500,2120.000,1.000,1263.000,5.000,0
"07/03/06","19:11:44","AMMA06",72705.000,"cc",28391.670,6.00,2839.167,1,6,0.100,37828.000,0.200,25976.000,0.300,5453.000,0.500,2089.000,1.000,1359.000,5.000,0
"07/03/06","19:11:50","AMMA06",73154.000,"cc",28281.402,6.00,2828.140,1,6,0.100,38292.000,0.200,25976.000,0.300,5435.000,0.500,2101.000,1.000,1349.000,5.000,1.000
"07/03/06","19:11:56","AMMA06",72883.000,"cc",28271.088,6.00,2827.109,1,6,0.100,37548.000,0.200,26410.000,0.300,5498.000,0.500,2073.000,1.000,1354.000,5.000,0
"07/03/06","19:12:02","AMMA06",72097.000,"cc",28283.705,6.00,2828.371,1,6,0.100,37379.000,0.200,25808.000,0.300,5359.000,0.500,2189.000,1.000,1360.000,5.000,2.000
"07/03/06","19:12:08","AMMA06",72786.000,"cc",28351.949,6.00,2835.195,1,6,0.100,37910.000,0.200,25865.000,0.300,5513.000,0.500,2179.000,1.000,1316.000,5.000,3.000
"07/03/06","19:12:14","AMMA06",72430.000,"cc",28308.232,6.00,2830.824,1,6,0.100,37410.000,0.200,26098.000,0.300,5523.000,0.500,2038.000,1.000,1359.000,5.000,2.000
"07/03/06","19:12:20","AMMA06",72337.000,"cc",28369.219,6.00,2836.922,1,6,0.100,37464.000,0.200,25991.000,0.300,5421.000,0.500,2093.000,1.000,1368.000,5.000,0
"07/03/06","19:12:26","AMMA06",72023.000,"cc",28291.611,6.00,2829.161,1,6,0.100,37119.000,0.200,25836.000,0.300,5565.000,0.500,2207.000,1.000,1296.000,5.000,0
"07/03/06","19:12:32","AMMA06",72543.000,"cc",28313.633,6.00,2831.364,1,6,0.100,37626.000,0.200,25963.000,0.300,5524.000,0.500,2099.000,1.000,1329.000,5.000,2.000
"07/03/06","19:12:38","AMMA06",72050.000,"cc",28359.277,6.00,2835.928,1,6,0.100,37374.000,0.200,25764.000,0.300,5424.000,0.500,2156.000,1.000,1332.000,5.000,0
"07/03/06","19:12:44","AMMA06",71898.000,"cc",28285.613,6.00,2828.562,1,6,0.100,37417.000,0.200,25607.000,0.300,5484.000,0.500,2089.000,1.000,1300.000,5.000,1.000
"07/03/06","19:12:50","AMMA06",72577.000,"cc",28337.227,6.00,2833.723,1,6,0.100,37145.000,0.200,26357.000,0.300,5508.000,0.500,2151.000,1.000,1415.000,5.000,1.000
"07/03/06","19:12:56","AMMA06",72319.000,"cc",28337.643,6.00,2833.764,1,6,0.100,37515.000,0.200,26029.000,0.300,5358.000,0.500,2089.000,1.000,1327.000,5.000,1.000
"07/03/06","19:13:02","AMMA06",72578.000,"cc",28310.065,6.00,2831.007,1,6,0.100,37467.000,0.200,26136.000,0.300,5476.000,0.500,2140.000,1.000,1357.000,5.000,2.000
"07/03/06","19:13:08","AMMA06",72129.000,"cc",28289.900,6.00,2828.990,1,6,0.100,37269.000,0.200,25963.000,0.300,5457.000,0.500,2170.000,1.000,1267.000,5.000,3.000
"07/03/06","19:13:14","AMMA06",72144.000,"cc",28335.219,6.00,2833.522,1,6,0.100,37098.000,0.200,25965.000,0.300,5610.000,0.500,2159.000,1.000,1307.000,5.000,5.000
"07/03/06","19:13:20","AMMA06",72783.000,"cc",28338.365,6.00,2833.837,1,6,0.100,37373.000,0.200,26410.000,0.300,5537.000,0.500,2117.000,1.000,1345.000,5.000,1.000
"07/03/06","19:13:26","AMMA06",72570.000,"cc",28311.963,6.00,2831.197,1,6,0.100,37480.000,0.200,26124.000,0.300,5525.000,0.500,2114.000,1.000,1327.000,5.000,0
"07/03/06","19:13:32","AMMA06",71649.000,"cc",28339.076,6.00,2833.908,1,6,0.100,36693.000,0.200,25791.000,0.300,5620.000,0.500,2161.000,1.000,1383.000,5.000,1.000
"07/03/06","19:13:38","AMMA06",72589.000,"cc",28304.986,6.00,2830.499,1,6,0.100,37369.000,0.200,26159.000,0.300,5660.000,0.500,2151.000,1.000,1250.000,5.000,0
"07/03/06","19:13:44","AMMA06",72505.000,"cc",28299.906,6.00,2829.991,1,6,0.100,37282.000,0.200,26334.000,0.300,5494.000,0.500,2083.000,1.000,1312.000,5.000,0
"07/03/06","19:13:50","AMMA06",72168.000,"cc",28289.232,6.00,2828.923,1,6,0.100,36916.000,0.200,26278.000,0.300,5509.000,0.500,2155.000,1.000,1310.000,5.000,0